This is the latest recevied weather packets stored in our database for station/object IU5JAE-13. If no packets are shown the sender has not sent any weather packets the latest 10 day(s).
| Time | Temp. | Humidity | Pressure | Rain* | Wind** | Luminosity | Snow |
|---|---|---|---|---|---|---|---|
| 1778001321 | 15° C | 95% | 1012.5 hPa | 0 mm | - | 29 W/m² | - |
| 1778000719 | 15.56° C | 94% | 1012.4 hPa | 0 mm | - | 22 W/m² | - |
| 1778000116 | 15.56° C | 94% | 1012.5 hPa | 0 mm | - | 47 W/m² | - |
| 1777999534 | 15.56° C | 94% | 1012.4 hPa | 0 mm | - | 39 W/m² | - |
| 1777998932 | 15.56° C | 92% | 1012.4 hPa | 0 mm | - | 62 W/m² | - |
| 1777998329 | 15.56° C | 92% | 1012.4 hPa | 0 mm | - | 81 W/m² | - |
| 1777997727 | 16.11° C | 91% | 1012.3 hPa | 0 mm | - | 51 W/m² | - |
| 1777997124 | 16.11° C | 91% | 1012.5 hPa | 0 mm | - | 67 W/m² | - |
| 1777996522 | 16.67° C | 90% | 1012.5 hPa | 0 mm | - | 108 W/m² | - |
| 1777995920 | 16.67° C | 90% | 1012.6 hPa | 0 mm | - | 104 W/m² | - |
| 1777995317 | 16.67° C | 91% | 1012.4 hPa | 0 mm | - | 124 W/m² | - |
| 1777994735 | 16.67° C | 90% | 1012.4 hPa | 0 mm | - | 103 W/m² | - |
| 1777994132 | 16.11° C | 91% | 1012.5 hPa | 0 mm | - | 158 W/m² | - |
| 1777993530 | 16.11° C | 92% | 1012.6 hPa | 0 mm | - | 135 W/m² | - |
| 1777992928 | 16.11° C | 93% | 1012.6 hPa | 0 mm | - | 132 W/m² | - |
| 1777992325 | 16.11° C | 93% | 1012.6 hPa | 0 mm | - | 137 W/m² | - |
| 1777991723 | 16.11° C | 93% | 1012.7 hPa | 0 mm | - | 88 W/m² | - |
| 1777991120 | 16.11° C | 94% | 1012.7 hPa | 0 mm | - | 137 W/m² | - |
| 1777990518 | 16.11° C | 95% | 1012.7 hPa | 0 mm | - | 125 W/m² | - |
| 1777989916 | 16.11° C | 95% | 1012.6 hPa | 0 mm | - | 99 W/m² | - |
| 1777989333 | 16.11° C | 96% | 1012.6 hPa | 0 mm | - | 170 W/m² | - |
| 1777988731 | 16.11° C | 96% | 1012.7 hPa | 0 mm | - | 142 W/m² | - |
| 1777988128 | 16.11° C | 96% | 1012.7 hPa | 0 mm | - | 198 W/m² | - |
| 1777987526 | 15.56° C | 96% | 1012.7 hPa | 0 mm | - | 209 W/m² | - |
| 1777986924 | 15.56° C | 97% | 1012.7 hPa | 0 mm | - | 376 W/m² | - |
* Rain latest hour (hover to see other rain measurements)
** Current wind speed in m/s (hover to see current wind gust speed)